Wind_Speed
6 8 5 7 10 11 11 16 11 24 22 27 24 22 21 7 5 9 8 7 9 5 8 3 7 14 13 14 18 27 29 29 29 27 28 29 32 33 34 34 33 30 26 22
6 10 8 6 11 14 15 18 19 23 27 20 15 16 16 9 5 5 5 6 6 7 2 4 13 13 16 18 16 25 30 30 31 32 32 32 31 26 28 27 29 25 21 18
4 5 7 3 6 10 5 8 9 9 14 16 17 9 9 11 11 9 9 7 7 2 5 11 15 16 15 26 21 26 32 32 33 31 31 30 32 28 25 23 18 17 15 13
3 5 1 1 5 7 9 11 10 11 14 12 13 2 6 10 13 9 8 6 7 7 12 18 22 21 20 28 22 30 30 30 32 34 32 31 29 25 20 22 16 14 11 9
2 2 6 3 4 5 5 7 4 6 8 8 4 4 2 10 10 12 11 10 11 15 18 20 22 20 25 24 27 29 27 29 28 31 31 29 26 24 20 20 16 13 9 8
1 2 3 3 2 4 4 4 4 5 5 5 5 1 2 7 8 11 11 13 15 18 20 22 20 22 24 22 23 21 23 24 29 25 24 28 25 23 19 17 14 11 8 6
4 3 6 7 4 6 2 4 2 3 1 3 2 1 3 6 8 11 12 14 15 17 18 17 18 21 22 20 20 23 27 27 24 21 23 23 22 19 17 14 12 9 8 5
4 4 7 5 4 3 4 1 1 1 4 5 6 5 5 7 7 8 10 13 14 16 16 15 18 24 20 19 21 28 25 23 24 22 22 21 20 16 14 12 10 8 6 6
7 5 6 4 6 1 1 2 2 2 4 7 8 5 5 5 6 6 11 12 13 17 19 17 17 18 23 20 23 24 23 25 23 20 19 16 16 15 13 10 9 7 4 4
1 5 4 3 2 2 2 1 3 2 6 7 7 8 7 6 6 8 12 13 15 16 18 16 17 18 21 24 24 26 26 25 22 21 18 15 13 11 10 8 6 4 3 3
5 8 2 1 1 0 1 3 4 4 5 7 10 8 7 6 6 8 13 14 15 16 17 17 19 19 21 23 24 25 23 19 17 15 14 13 11 8 7 6 4 3 3 5
5 5 2 2 0 0 3 3 5 6 5 5 7 9 9 7 10 12 13 16 17 17 19 19 20 21 20 22 23 25 21 18 15 14 12 10 8 7 4 4 3 4 5 5
6 3 3 3 4 3 4 5 5 6 6 8 7 11 13 10 11 17 17 17 18 16 18 20 22 21 19 20 20 20 20 17 14 12 10 8 7 5 4 4 3 4 5 6
5 4 3 4 4 5 6 6 10 9 11 11 12 15 16 15 17 16 16 17 18 19 19 23 24 21 19 18 19 18 16 14 13 11 9 7 6 5 5 6 6 8 7 8
7 4 4 6 7 6 6 9 9 8 8 7 13 14 16 13 14 17 19 21 23 24 25 25 23 20 19 19 18 17 15 13 11 9 7 6 5 5 5 5 6 8 9 10
2 4 5 5 7 7 7 7 9 9 9 8 9 13 15 18 18 19 22 26 25 19 24 23 21 19 17 16 16 15 13 10 8 6 5 5 5 5 5 6 7 8 9 11
6 4 1 2 7 8 8 7 8 10 10 9 14 19 21 21 20 19 20 21 25 25 23 22 21 17 15 13 12 12 10 8 6 5 5 5 5 6 6 7 8 9 10 12
7 8 6 5 7 8 8 7 9 12 10 16 19 19 19 19 14 18 24 25 23 20 18 18 17 15 13 11 9 8 7 6 5 4 5 5 6 6 7 8 8 10 11 12
8 6 6 5 7 8 8 9 14 16 19 19 20 17 17 17 20 23 27 25 23 21 17 15 14 13 11 9 7 6 5 4 4 4 5 5 7 7 8 9 10 10 11 13
10 9 5 2 8 11 9 16 20 19 19 20 19 18 16 19 25 26 25 19 21 16 20 16 13 11 10 7 6 5 4 3 4 4 5 6 7 8 8 8 9 11 13 13
8 7 5 4 5 10 16 21 22 19 22 23 22 19 19 23 25 25 20 12 14 20 17 15 12 10 8 5 3 3 3 3 4 5 6 7 8 8 9 10 10 13 15 14
6 4 3 4 6 7 11 16 17 19 20 21 20 21 22 21 24 19 17 18 21 19 16 13 11 8 6 4 2 2 3 3 4 5 7 8 9 10 11 11 14 15 14 16
7 5 0 4 6 8 13 15 17 20 19 20 21 22 21 21 22 18 9 19 20 18 15 12 10 9 6 3 1 1 2 4 5 6 7 8 9 11 12 16 15 15 16 17
8 6 2 3 10 11 7 10 18 19 20 21 22 25 27 21 18 15 11 22 18 18 14 13 11 8 4 2 0 2 3 5 6 7 8 9 11 12 13 14 15 16 17 15
9 6 1 8 5 4 14 18 19 20 21 21 22 23 22 21 14 18 22 23 18 17 15 12 9 6 3 1 1 3 4 6 7 8 11 12 13 15 15 15 16 17 17 19
9 6 4 5 8 13 16 17 14 16 18 16 18 22 21 18 15 21 24 22 19 18 15 12 8 4 2 1 2 4 5 6 7 9 10 13 15 16 15 15 16 16 16 17
9 4 3 2 8 13 17 17 16 16 18 20 17 23 23 22 23 25 25 22 19 16 13 9 6 3 1 2 4 5 6 7 9 11 13 14 14 14 14 16 16 17 17 17
Wind_Direction
278 263 228 222 236 236 237 250 252 278 278 284 298 302 300 289 316 296 262 282 277 297 304 29 78 78 79 100 124 135 127 125 125 130 129 130 134 138 147 156 160 161 160 154
283 260 241 248 246 243 244 252 255 264 275 282 305 319 329 255 233 272 274 273 277 289 9 85 87 92 97 84 104 116 119 112 115 115 117 119 123 127 140 147 153 153 154 146
265 329 323 284 237 230 215 226 245 264 276 300 299 313 354 343 333 306 280 269 267 337 95 82 91 100 109 105 106 105 105 108 110 111 111 118 124 132 135 140 143 141 139 148
284 339 319 227 201 194 216 260 253 260 278 290 288 122 24 2 348 300 283 284 94 101 88 89 92 96 101 102 107 98 100 104 108 113 115 123 133 139 153 137 147 142 144 148
261 247 274 253 210 206 190 286 233 267 292 309 317 160 84 21 28 28 41 55 74 86 88 89 95 102 100 98 98 98 100 103 111 127 132 135 140 142 158 146 147 153 152 146
226 277 257 262 233 132 121 264 199 229 282 314 354 331 336 44 44 60 64 75 81 85 85 84 91 101 101 102 104 103 103 111 128 126 133 140 150 153 154 149 142 136 143 133
213 256 279 254 256 142 293 250 231 242 295 14 94 354 51 76 70 75 80 88 100 101 100 102 103 101 96 99 98 107 123 127 127 139 143 142 147 146 142 133 137 133 115 105
178 217 266 210 120 213 234 291 306 202 157 118 122 101 82 93 95 94 92 95 91 91 80 83 106 109 95 98 115 124 123 123 130 142 141 145 140 133 124 128 125 111 95 82
191 213 235 240 229 32 27 265 292 195 152 142 131 133 124 99 114 116 107 99 95 100 96 90 91 104 107 113 122 121 125 126 132 136 134 130 128 123 116 113 97 85 86 69
247 278 256 205 98 53 14 315 293 152 148 148 139 137 124 110 99 95 95 105 112 107 105 107 110 111 109 120 132 134 127 127 129 129 127 122 111 101 97 104 100 81 60 6
280 285 42 103 102 239 85 85 64 75 137 133 133 128 124 116 98 100 105 109 115 116 113 111 112 110 129 139 144 129 121 121 121 116 109 103 99 100 96 89 59 49 25 2
231 269 228 263 219 276 147 142 127 119 108 113 131 132 125 113 115 112 109 113 111 110 113 114 118 127 138 141 139 134 129 128 126 125 121 111 110 113 101 77 43 21 7 353
259 245 225 157 157 152 140 140 127 116 116 124 118 126 118 120 121 122 116 119 118 120 117 117 123 128 136 143 143 137 133 134 130 124 119 115 109 99 87 77 58 31 11 345
248 202 229 190 211 142 127 111 112 100 103 112 121 121 124 126 129 126 125 129 128 121 117 124 130 132 142 144 140 134 129 128 124 120 119 109 89 64 39 21 7 359 4 353
319 212 197 124 118 124 122 125 121 124 123 112 122 127 129 131 130 128 126 129 130 129 132 134 131 131 141 141 135 131 126 122 119 109 96 79 55 35 23 14 0 354 350 350
67 92 124 136 160 158 149 150 147 145 140 128 121 120 120 117 119 124 134 143 137 139 142 137 132 136 140 138 130 124 115 111 105 95 78 52 31 25 13 358 354 351 348 347
288 300 126 207 185 184 183 171 163 157 145 145 139 135 131 128 125 128 140 150 147 146 146 143 136 139 137 133 126 115 107 102 92 78 49 28 16 6 355 348 343 343 343 341
260 263 252 210 184 177 175 160 148 150 154 147 141 141 140 143 143 140 142 144 140 139 144 142 140 138 132 124 117 113 108 96 74 51 24 12 6 350 344 341 338 333 333 337
336 270 234 210 177 168 158 151 150 143 142 147 146 150 148 140 142 145 149 146 145 142 150 148 145 138 128 124 122 114 99 76 47 25 8 1 352 348 342 339 334 329 330 333
351 345 347 148 161 157 144 138 137 140 149 151 142 141 140 145 153 155 160 156 164 161 153 154 149 140 130 124 118 102 82 50 22 8 5 345 344 341 338 332 326 329 331 332
336 341 11 92 96 132 144 150 149 153 162 158 157 160 155 154 160 161 151 145 161 157 155 154 151 142 137 131 110 86 50 20 5 354 345 339 334 333 330 328 327 326 326 327
330 354 32 85 111 107 140 151 150 155 157 154 153 150 147 149 159 162 169 164 157 161 160 157 153 148 141 136 113 51 9 357 349 338 334 333 330 326 325 324 324 323 324 324
334 335 36 143 153 154 160 157 156 158 157 156 154 156 159 160 163 151 143 162 161 164 161 157 153 149 153 142 106 349 344 340 335 330 327 328 326 320 317 318 320 320 322 323
335 347 319 166 155 139 137 148 156 158 157 157 161 166 161 152 164 178 166 162 160 164 162 158 154 155 163 160 299 330 332 330 327 326 328 324 321 321 321 319 321 324 322 320
338 334 220 163 139 133 145 151 143 145 148 152 163 170 171 172 172 167 166 159 159 165 160 156 158 172 168 175 318 321 325 325 328 325 316 319 324 323 321 319 319 319 318 314
323 313 283 229 199 175 161 155 145 146 143 141 150 168 169 175 171 163 162 163 164 163 164 167 172 180 184 262 311 320 321 325 326 323 321 322 322 319 318 318 320 319 319 320
322 309 274 206 192 188 181 168 155 161 162 157 150 167 171 165 164 163 165 165 167 168 172 176 180 187 212 298 314 318 322 324 323 322 322 322 319 322 327 329 327 324 324 324
Height
771 766 769 771 767 764 769 760 766 733 734 717 714 709 703 699 701 695 695 695 696 694 691 689 688 685 686 686 687 688 692 700 707 718 725 731 737 743 749 756 761 768 773 775
787 762 765 769 759 754 753 750 749 742 729 716 708 708 700 693 693 695 695 695 693 691 689 692 691 692 693 695 698 692 697 701 712 720 728 734 740 750 756 763 767 770 775 776
788 756 760 757 746 741 736 735 734 733 719 707 706 708 713 709 703 696 692 689 689 690 693 697 696 695 694 693 697 704 702 710 717 726 733 738 744 754 762 769 775 776 777 781
773 768 763 728 727 726 732 724 723 720 711 706 702 712 713 711 706 698 693 687 691 694 696 700 701 703 702 699 712 707 712 719 725 731 740 747 755 762 771 761 775 777 779 783
760 758 750 726 724 728 729 721 715 716 714 709 703 708 712 713 711 708 703 700 700 701 701 704 708 712 712 716 715 718 721 727 735 740 745 749 754 758 769 768 773 780 784 785
759 758 757 721 714 716 722 721 709 713 711 709 708 706 711 716 716 713 711 710 710 710 711 712 716 718 720 722 721 725 729 732 735 741 752 755 762 766 771 774 778 780 784 785
757 753 741 722 715 717 724 717 709 707 708 711 713 721 720 720 720 719 716 715 715 715 715 716 719 720 723 727 729 732 736 742 748 756 760 764 768 770 772 774 780 783 783 783
751 751 750 712 717 718 709 705 706 705 710 716 718 722 723 724 723 722 721 722 722 722 723 722 724 723 727 733 738 739 744 750 754 762 763 768 771 773 774 776 779 780 781 780
737 731 713 706 706 706 707 708 705 704 709 712 718 722 724 725 725 727 727 727 727 727 729 732 733 736 736 742 746 749 754 756 761 766 769 772 773 773 775 777 777 779 780 779
721 708 708 705 709 709 708 708 706 704 709 712 718 722 725 727 728 728 731 732 733 734 735 739 741 744 744 747 752 756 759 762 766 769 772 773 773 773 774 777 779 779 780 779
722 711 708 709 709 708 709 709 708 708 710 714 719 723 726 730 731 732 734 737 739 740 742 744 746 748 750 753 757 759 761 765 768 770 771 772 774 777 778 779 780 780 779 779
718 707 707 708 709 709 710 710 710 711 714 717 719 722 727 731 733 735 738 740 743 745 747 749 751 754 756 759 761 763 767 770 772 773 775 776 778 779 780 781 781 780 779 778
707 705 706 707 708 709 711 712 712 714 715 718 722 723 726 732 737 739 741 744 746 748 750 752 755 758 762 765 767 768 769 772 774 776 777 779 780 780 780 780 779 778 777 776
704 704 705 707 706 709 711 713 715 717 719 720 724 726 728 733 738 742 744 748 750 753 755 757 761 764 766 768 770 771 773 775 776 777 779 779 779 778 777 777 777 777 776 775
700 699 698 702 707 710 712 715 718 720 722 724 727 729 731 735 739 743 746 750 753 756 760 762 764 767 769 771 771 773 774 775 777 777 778 778 778 777 777 777 777 776 775 773
703 703 705 705 709 710 712 715 718 719 723 726 729 732 735 737 741 745 748 751 754 758 762 764 766 769 771 772 773 774 775 776 776 776 777 777 777 777 777 777 776 775 774 772
706 707 710 711 709 709 710 713 715 716 721 725 728 732 736 739 744 748 751 754 757 760 763 765 767 769 771 772 772 773 774 775 776 777 777 777 777 777 776 775 774 773 772 770
704 701 699 697 701 705 708 711 714 719 722 726 730 733 737 740 743 748 752 755 759 762 765 766 768 769 770 771 772 773 774 775 776 776 776 776 776 776 775 774 773 771 770 768
696 693 693 694 697 700 704 709 712 717 722 726 730 734 737 740 745 749 752 755 758 761 765 767 768 769 770 772 773 774 775 775 776 776 776 776 775 775 774 773 771 770 768 766
701 697 694 694 696 699 702 706 712 717 722 726 730 735 738 742 745 749 752 755 757 759 763 766 768 770 771 773 774 774 775 775 775 775 775 775 774 774 773 771 770 768 766 764
708 704 700 698 700 701 703 706 710 715 720 724 728 733 736 741 745 749 753 756 759 761 764 767 769 770 772 773 774 774 774 774 774 774 774 774 773 772 771 769 767 765 763 762
711 707 705 704 705 708 708 710 713 717 720 723 728 733 737 742 746 750 753 754 758 762 764 766 768 770 772 773 774 774 774 773 773 773 773 772 771 769 767 766 764 762 760 759
712 709 707 706 707 708 711 712 714 717 720 724 728 732 737 740 744 748 752 756 758 761 764 767 769 770 771 773 773 773 773 773 772 772 771 770 768 767 765 763 761 760 758 756
713 711 709 709 709 710 712 713 715 718 722 726 730 733 736 741 746 749 751 755 759 762 764 767 768 770 771 771 772 772 772 772 771 770 769 768 767 764 762 760 758 757 755 753
715 713 711 711 711 712 713 714 717 721 724 727 731 735 737 742 744 748 751 755 759 762 764 767 768 769 770 770 771 771 771 770 769 768 767 765 763 761 759 757 755 753 751 749
715 714 713 712 712 713 714 715 717 721 724 729 731 735 738 742 746 749 753 757 759 762 764 766 768 769 769 770 770 770 769 768 767 766 764 762 760 758 756 753 751 749 747 744
715 714 713 713 713 713 715 716 717 719 722 725 729 733 737 739 745 749 753 757 759 762 764 766 767 767 768 769 769 768 768 767 765 763 761 759 757 754 751 749 747 745 743 740